Tracking 30264 objects as of 15-Feb-2025
HD Live streaming from Space Station
objects crossing your sky now

QIANFAN-53

Track QIANFAN-53 now!
10-day predictions


NORAD ID: 62254
Int'l Code: 2024-232T
Perigee: 862.2 km
Apogee: 884.5 km
Inclination: 89.0 °
Period: 102.3 minutes
Semi major axis: 7244 km
RCS: Unknown
Launch date: December 5, 2024
Source: People's Republic of China (PRC)
Launch site: Taiyaun Space Center, China (TSC)
Your satellite tracking list
Your tracking list is empty




NASA's NSSDC Master Catalog

Two Line Element Set (TLE):
1 62254U 24232T   25046.78206502  .00000222  00000-0  12261-3 0  9990
2 62254  88.9878  71.8139 0015389 355.4869   4.6173 14.08017801 27307
Source of the keplerian elements: AFSPC